Home > Time Zones > World Clock > Weather > U.S.A. > Adak > Past weeks

Flag Weather past 2 weeks in Adak, Alaska, U.S.A.

Now
50 °F

Mostly cloudy.


Feels Like: 43 °F
Forecast: 42 / 47 °F
Wind: 21 mph from South

Location: Adak

Current Time: Oct 30, 2014 at 5:00:10 AM

Latest Report: Oct 30, 2014 at 4:36 AM


Visibility: 9 mi

Pressure: 29.55 "Hg

Humidity: 82%

Dew point: 45 °F

Location of AdakLocation

Historic Weather in Adak — Graph

°F

Adak temperature yesterday

Maximum temperature yesterday: 52 °F (at 6:16 AM)
Minimum temperature yesterday: 46 °F (at 12:36 AM)
Average temperature yesterday: 48 °F

Past Weeks' High & Low Weather Summary

 TemperatureHumidityPressure
High52 °F (Oct 19, 4:36 PM)87% (Oct 16, 1:56 AM)30.41 "Hg (Oct 16, 1:56 AM)
Low30 °F (Oct 24, 11:36 PM)45% (Oct 28, 8:36 AM)29.02 "Hg (Oct 16, 2:16 AM)
Average44 °F71%29.96 "Hg
* Reported Oct 15 3:16 AM — Oct 30 3:56 AM, Adak, Weather by CustomWeather, © 2014

Note: Actual official high and low records may vary slightly from our data, if they occured in-between our weather recording intervals... More about our weather records

Advertising

Adak weather history for previous 24 hours

 ConditionsComfort  
Time TempWeatherWind HumidityBarometerVisibility
3:56 AM
Oct 30
50 °FOvercast.16 mph76%29.60 "Hg8 mi
3:36 AM48 °FMostly cloudy.15 mph82%29.62 "Hg8 mi
3:16 AM48 °FMostly cloudy.13 mph82%29.64 "Hg8 mi
2:56 AM48 °FOvercast.16 mph82%29.66 "Hg10 mi
2:36 AM48 °FOvercast.12 mph82%29.68 "Hg7 mi
2:16 AM48 °FOvercast.12 mph82%29.69 "Hg7 mi
1:56 AM48 °FMostly cloudy.8 mph82%29.71 "Hg8 mi
1:36 AM48 °FOvercast.12 mph87%29.72 "Hg10 mi
1:16 AM48 °FOvercast.13 mph87%29.75 "Hg10 mi
12:56 AM48 °FMostly cloudy.3 mph82%29.76 "Hg10 mi
12:36 AM48 °FOvercast.8 mph82%29.77 "Hg7 mi
11:56 PM
Oct 29
46 °FOvercast.7 mph87%29.81 "Hg10 mi
11:36 PM46 °FMostly cloudy.7 mph87%29.82 "Hg10 mi
11:16 PM46 °FOvercast.No wind87%29.83 "Hg10 mi
10:56 PM46 °FMostly cloudy.No wind82%29.83 "Hg10 mi
10:36 PM46 °FMostly cloudy.No wind82%29.84 "Hg10 mi
10:16 PM46 °FLow clouds.No wind82%29.86 "Hg3 mi
9:56 PM46 °FLow clouds.No wind76%29.87 "Hg2 mi
9:36 PM46 °FLow clouds.No wind82%29.87 "Hg10 mi
8:56 PM46 °FLow clouds.No wind82%29.88 "Hg2 mi
8:36 PM46 °FMostly cloudy.No wind82%29.88 "Hg4 mi
8:16 PM46 °FOvercast.No wind87%29.89 "Hg10 mi
7:56 PM46 °FOvercast.No wind82%29.90 "Hg5 mi
7:36 PM46 °FOvercast.3 mph87%29.89 "Hg10 mi
7:16 PM46 °FMostly cloudy.No wind87%29.90 "Hg6 mi
6:56 PM46 °FLow clouds.No wind87%29.89 "Hg5 mi
6:36 PM46 °FLow clouds.5 mph87%29.90 "Hg9 mi
6:16 PM46 °FMostly cloudy.7 mph87%29.90 "Hg5 mi
5:56 PM46 °FMostly cloudy.14 mph87%29.90 "Hg2 mi
5:36 PM48 °FMostly cloudy.14 mph82%29.89 "Hg1 mi
5:16 PM48 °FLow clouds.12 mph82%29.89 "Hg1 mi
4:56 PM48 °FLow clouds.16 mph82%29.89 "Hg1 mi
4:36 PM48 °FLow clouds.13 mph82%29.88 "Hg1 mi
4:16 PM48 °FLow clouds.10 mph82%29.88 "Hg1 mi
3:56 PM48 °FLow clouds.8 mph82%29.86 "Hg2 mi
3:36 PM48 °FLow clouds.10 mph82%29.87 "Hg1 mi
2:56 PM48 °FLow clouds.18 mph87%29.88 "Hg2 mi
2:36 PM48 °FLow clouds.18 mph87%29.88 "Hg4 mi
1:56 PM50 °FLow clouds.23 mph82%29.88 "Hg8 mi
1:36 PM50 °FLow clouds.24 mph82%29.86 "Hg2 mi
1:16 PM50 °FMostly cloudy.26 mph82%29.86 "Hg1 mi
12:56 PM52 °FMostly cloudy.25 mph82%29.87 "Hg2 mi
12:36 PM52 °FLow clouds.21 mph77%29.87 "Hg1 mi
11:56 AM52 °FOvercast.16 mph77%29.89 "Hg10 mi
11:36 AM52 °FOvercast.15 mph77%29.89 "Hg7 mi
11:16 AM52 °FOvercast.21 mph77%29.90 "Hg10 mi
10:56 AM52 °FLow clouds.22 mph77%29.89 "Hg10 mi
10:36 AM50 °FLow clouds.24 mph82%29.89 "Hg7 mi
10:16 AM50 °FLow clouds.23 mph82%29.89 "Hg7 mi
9:56 AM50 °FMostly cloudy.24 mph82%29.88 "Hg9 mi
9:36 AM50 °FOvercast.20 mph82%29.88 "Hg10 mi
9:16 AM50 °FOvercast.23 mph82%29.89 "Hg9 mi
8:56 AM50 °FMostly cloudy.25 mph82%29.90 "Hg8 mi
8:36 AM50 °FOvercast.23 mph82%29.90 "Hg7 mi
8:16 AM50 °FLow clouds.16 mph82%29.92 "Hg10 mi
7:56 AM50 °FLow clouds.16 mph82%29.92 "Hg10 mi
7:36 AM50 °FLow clouds.15 mph82%29.92 "Hg8 mi
7:16 AM52 °FOvercast.17 mph77%29.92 "Hg8 mi
6:56 AM52 °FOvercast.23 mph77%29.92 "Hg10 mi
6:36 AM52 °FOvercast.26 mph77%29.92 "Hg6 mi
6:16 AM52 °FMostly cloudy.24 mph77%29.92 "Hg10 mi
5:56 AM50 °FOvercast.26 mph82%29.93 "Hg6 mi
5:36 AM48 °FOvercast.18 mph82%29.96 "Hg9 mi
5:16 AM48 °FOvercast.13 mph82%29.97 "Hg10 mi
Weather by CustomWeather, © 2014

See weather overviewHow to use our weather pages